STARLINK-1443 (45660 NORAD) Tracking and Keplerian Element Data

This shows tracking and keplerian element data for the satellite.

Feedback or suggestion? Click here.




ElementValue
Catalog45660
NameSTARLINK-1443
Epoch Orbit1059
Epoch Day218.91667824
Epoch Year2020
RAAN232.4844
Inclination52.9996
Eccentricity0.0001453
Argument of Perigee70.1567
Mean Anonmoly354.3599
Mean Motion15.05599505
Decay Rate-8.678E-05
L11 45660U 20035D 20218.91667824 -.00008678 00000-0 -57685-3 0 9992
L22 45660 52.9996 232.4844 0001453 70.1567 354.3599 15.05599505 10596

Live tracking and technical data element details for STARLINK-1443 (NORAD 45660). STARLINK-1443 can be tracked NOW for your location showing map with azimuth and elevation plus other details from your city location.

Track the satellite on the map from your city or location and see movement details for azimuth, elevation, latitude, longitude, range, height, and movement on the map or in text.







IsCatalogInMostPopularTable: catalog: 45660, numindb: 5
Update: records affected: 1



GetName: 45660 STARLINK-1443

Hit Count: updated at: Sat, 08 Aug 2020 00:58:19 GMT